• In Belgium
  • List of Countries
  • For 7 days
  • Water Temperature
  • Satellite Maps
  • Weather Map
  • Weather Widgets
  • user-avatar
    Login

    Hourly Weather Begijnendijk

    Today, 13 December, Wednesday

    Time Temperature Precipitation Wind Pressure Humidity
    00:00 -1°C° 0 mm 5 mps 758 mmHg 87%
    01:00 -1°C° 0 mm 6 mps 757 mmHg 87%
    02:00 -1°C° 0 mm 7 mps 756 mmHg 86%
    03:00 0°C° 0 mm 7 mps 756 mmHg 85%
    04:00 0°C° 0.5 mm 8 mps 755 mmHg 84%
    05:00 +1°C° 0.5 mm 8 mps 754 mmHg 84%
    06:00 +1°C° 0.5 mm 9 mps 753 mmHg 84%
    07:00 +1°C° 1 mm 9 mps 752 mmHg 84%
    08:00 +2°C° 1 mm 9 mps 752 mmHg 85%
    09:00 +2°C° 1 mm 10 mps 751 mmHg 86%
    10:00 +3°C° 0.8 mm 9 mps 751 mmHg 87%
    11:00 +4°C° 0.8 mm 8 mps 750 mmHg 88%
    12:00 +4°C° 0.8 mm 7 mps 749 mmHg 90%
    13:00 +5°C° 0.5 mm 7 mps 749 mmHg 90%
    14:00 +5°C° 0.5 mm 6 mps 748 mmHg 91%
    15:00 +5°C° 0.5 mm 6 mps 747 mmHg 91%
    16:00 +5°C° 1 mm 7 mps 746 mmHg 90%
    17:00 +5°C° 1 mm 8 mps 745 mmHg 89%
    18:00 +6°C° 1 mm 9 mps 744 mmHg 88%
    19:00 +6°C° 2.3 mm 9 mps 743 mmHg 85%
    20:00 +5°C° 2.3 mm 8 mps 743 mmHg 83%
    21:00 +5°C° 2.3 mm 7 mps 742 mmHg 80%
    22:00 +4°C° 0.2 mm 7 mps 742 mmHg 79%
    23:00 +3°C° 0.2 mm 6 mps 743 mmHg 78%

    Tomorrow, 14 December, Thursday

    Time Temperature Precipitation Wind Pressure Humidity
    00:00 +3°C° 0.2 mm 6 mps 743 mmHg 77%
    01:00 +2°C° 0.7 mm 7 mps 743 mmHg 72%
    02:00 +1°C° 0.7 mm 9 mps 744 mmHg 68%
    03:00 +1°C° 0.7 mm 10 mps 744 mmHg 63%
    04:00 +1°C° 0 mm 9 mps 745 mmHg 65%
    05:00 +1°C° 0 mm 9 mps 745 mmHg 67%
    06:00 +1°C° 0 mm 8 mps 746 mmHg 69%
    07:00 +1°C° 0.1 mm 8 mps 746 mmHg 70%
    08:00 +2°C° 0.1 mm 7 mps 747 mmHg 72%
    09:00 +2°C° 0.1 mm 7 mps 747 mmHg 73%
    10:00 +3°C° 0.1 mm 7 mps 746 mmHg 72%
    11:00 +3°C° 0.1 mm 7 mps 746 mmHg 71%
    12:00 +4°C° 0.1 mm 7 mps 746 mmHg 70%
    13:00 +4°C° 0.1 mm 6 mps 745 mmHg 72%
    14:00 +3°C° 0.1 mm 6 mps 744 mmHg 75%
    15:00 +3°C° 0.1 mm 5 mps 744 mmHg 77%
    16:00 +3°C° 0.9 mm 5 mps 743 mmHg 82%
    17:00 +3°C° 0.9 mm 4 mps 742 mmHg 86%
    18:00 +3°C° 0.9 mm 4 mps 742 mmHg 90%
    19:00 +3°C° 0.8 mm 4 mps 741 mmHg 90%
    20:00 +3°C° 0.8 mm 4 mps 741 mmHg 89%
    21:00 +3°C° 0.8 mm 4 mps 741 mmHg 88%
    22:00 +3°C° 0.1 mm 4 mps 742 mmHg 85%
    23:00 +1°C° 0.1 mm 4 mps 742 mmHg 83%

    Day after tomorrow, 15 December, Friday

    Time Temperature Precipitation Wind Pressure Humidity
    00:00 +1°C° 0.1 mm 5 mps 743 mmHg 80%
    01:00 +1°C° 0 mm 5 mps 743 mmHg 80%
    02:00 0°C° 0 mm 4 mps 743 mmHg 80%
    03:00 0°C° 0 mm 4 mps 743 mmHg 81%
    04:00 0°C° 0.1 mm 5 mps 743 mmHg 82%
    05:00 0°C° 0.1 mm 5 mps 743 mmHg 83%
    06:00 0°C° 0.1 mm 5 mps 743 mmHg 84%
    07:00 +1°C° 0.9 mm 5 mps 743 mmHg 85%
    08:00 +1°C° 0.9 mm 5 mps 743 mmHg 87%
    09:00 +1°C° 0.9 mm 5 mps 743 mmHg 88%
    10:00 +3°C° 0.4 mm 4 mps 743 mmHg 87%
    11:00 +3°C° 0.4 mm 4 mps 744 mmHg 86%
    12:00 +4°C° 0.4 mm 4 mps 744 mmHg 85%
    13:00 +3°C° 0.2 mm 4 mps 744 mmHg 86%
    14:00 +3°C° 0.2 mm 3 mps 745 mmHg 87%
    15:00 +4°C° 0.2 mm 2 mps 745 mmHg 88%
    16:00 +3°C° 0 mm 2 mps 746 mmHg 89%
    17:00 +3°C° 0 mm 2 mps 747 mmHg 90%
    18:00 +2°C° 0 mm 2 mps 748 mmHg 92%
    19:00 +2°C° 0 mm 2 mps 749 mmHg 91%
    20:00 +1°C° 0 mm 3 mps 750 mmHg 91%
    21:00 +1°C° 0 mm 3 mps 751 mmHg 90%
    22:00 +1°C° 0.1 mm 3 mps 752 mmHg 89%
    23:00 +2°C° 0.1 mm 3 mps 752 mmHg 88%

    16 December, Saturday

    Time Temperature Precipitation Wind Pressure Humidity
    00:00 +2°C° 0.1 mm 3 mps 753 mmHg 87%
    01:00 +2°C° 0.2 mm 3 mps 753 mmHg 87%
    02:00 +1°C° 0.2 mm 4 mps 754 mmHg 86%
    03:00 +1°C° 0.2 mm 4 mps 754 mmHg 86%
    04:00 +1°C° 0.2 mm 4 mps 755 mmHg 86%
    05:00 +1°C° 0.2 mm 4 mps 755 mmHg 85%
    06:00 +1°C° 0.2 mm 4 mps 756 mmHg 85%
    07:00 +1°C° 0.2 mm 4 mps 756 mmHg 84%
    08:00 +1°C° 0.2 mm 4 mps 757 mmHg 84%
    09:00 +1°C° 0.2 mm 4 mps 758 mmHg 83%
    10:00 +2°C° 0.2 mm 5 mps 758 mmHg 80%
    11:00 +3°C° 0.2 mm 5 mps 758 mmHg 77%
    12:00 +3°C° 0.2 mm 5 mps 759 mmHg 74%
    13:00 +3°C° 0.3 mm 5 mps 759 mmHg 76%
    14:00 +3°C° 0.3 mm 5 mps 759 mmHg 77%
    15:00 +2°C° 0.3 mm 5 mps 760 mmHg 79%
    16:00 +3°C° 0.2 mm 4 mps 760 mmHg 81%
    17:00 +1°C° 0.2 mm 4 mps 761 mmHg 82%
    18:00 +1°C° 0.2 mm 4 mps 762 mmHg 84%
    19:00 +1°C° 0.1 mm 4 mps 762 mmHg 85%
    20:00 +1°C° 0.1 mm 4 mps 763 mmHg 86%
    21:00 +1°C° 0.1 mm 3 mps 763 mmHg 87%
    22:00 +1°C° 0.1 mm 3 mps 764 mmHg 87%
    23:00 +1°C° 0.1 mm 3 mps 764 mmHg 87%

    17 December, Sunday

    Time Temperature Precipitation Wind Pressure Humidity
    00:00 +1°C° 0.1 mm 3 mps 764 mmHg 88%
    01:00 +1°C° 0.1 mm 3 mps 765 mmHg 88%
    02:00 +1°C° 0.1 mm 2 mps 765 mmHg 88%
    03:00 +1°C° 0.1 mm 2 mps 765 mmHg 89%
    04:00 +1°C° 0 mm 2 mps 766 mmHg 89%
    05:00 +1°C° 0 mm 2 mps 766 mmHg 89%
    06:00 +1°C° 0 mm 2 mps 767 mmHg 90%
    07:00 +1°C° 0 mm 2 mps 767 mmHg 89%
    08:00 +1°C° 0 mm 2 mps 768 mmHg 88%
    09:00 +2°C° 0 mm 2 mps 769 mmHg 88%
    10:00 +3°C° 0 mm 2 mps 769 mmHg 85%
    11:00 +4°C° 0 mm 2 mps 769 mmHg 83%
    12:00 +5°C° 0 mm 2 mps 769 mmHg 80%
    13:00 +4°C° 0 mm 2 mps 769 mmHg 82%
    14:00 +4°C° 0 mm 2 mps 770 mmHg 84%
    15:00 +3°C° 0 mm 2 mps 770 mmHg 86%
    16:00 +3°C° 0 mm 2 mps 770 mmHg 88%
    17:00 +2°C° 0 mm 2 mps 771 mmHg 89%
    18:00 +2°C° 0 mm 2 mps 771 mmHg 91%
    19:00 +1°C° 0 mm 2 mps 771 mmHg 91%
    20:00 0°C° 0 mm 3 mps 772 mmHg 92%
    21:00 0°C° 0 mm 3 mps 772 mmHg 92%
    22:00 0°C° 0 mm 3 mps 772 mmHg 92%
    23:00 0°C° 0 mm 3 mps 772 mmHg 91%

    18 December, Monday

    Time Temperature Precipitation Wind Pressure Humidity
    00:00 -1°C° 0 mm 4 mps 772 mmHg 91%
    01:00 -1°C° 0 mm 4 mps 771 mmHg 90%
    02:00 -1°C° 0 mm 4 mps 771 mmHg 89%
    03:00 -1°C° 0 mm 4 mps 771 mmHg 88%
    04:00 -1°C° 0 mm 5 mps 771 mmHg 88%
    05:00 -1°C° 0 mm 5 mps 770 mmHg 87%
    06:00 -1°C° 0 mm 6 mps 770 mmHg 86%
    07:00 -1°C° 0.4 mm 6 mps 769 mmHg 87%
    08:00 0°C° 0.4 mm 7 mps 769 mmHg 87%
    09:00 0°C° 0.4 mm 7 mps 769 mmHg 87%
    10:00 0°C° 0.5 mm 7 mps 768 mmHg 89%
    11:00 +2°C° 0.5 mm 6 mps 767 mmHg 90%
    12:00 +2°C° 0.5 mm 6 mps 767 mmHg 92%
    13:00 +2°C° 0.2 mm 5 mps 767 mmHg 93%
    14:00 +3°C° 0.2 mm 5 mps 767 mmHg 95%
    15:00 +4°C° 0.2 mm 4 mps 766 mmHg 96%
    16:00 +5°C° 0.1 mm 4 mps 767 mmHg 96%
    17:00 +5°C° 0.1 mm 3 mps 767 mmHg 96%
    18:00 +5°C° 0.1 mm 3 mps 767 mmHg 97%
    19:00 +5°C° 0 mm 3 mps 768 mmHg 96%
    20:00 +4°C° 0 mm 3 mps 769 mmHg 95%
    21:00 +5°C° 0 mm 2 mps 769 mmHg 94%
    22:00 +5°C° 0 mm 2 mps 770 mmHg 93%
    23:00 +4°C° 0 mm 2 mps 770 mmHg 93%
    Show more